Weather History for Austin, MN

Change the Weather History Date:

Wednesday, February 19, 2014

  Actual Average Record
Temperature  
Mean Temperature 26 °F -  
Max Temperature 37 °F 29 °F 44 °F (2002)
Min Temperature 14 °F 16 °F -11 °F (2006)
Degree Days  
Heating Degree Days 40    
Moisture  
Dew Point 26 °F    
Average Humidity 87    
Maximum Humidity 100    
Minimum Humidity 75    
Precipitation  
Precipitation 0.00 in - - ()
Sea Level Pressure  
Sea Level Pressure 29.80 in    
Wind  
Wind Speed 7 mph (SSW)    
Max Wind Speed 12 mph    
Max Gust Speed 17 mph    
Visibility 9 miles    
Events Fog    
Averages and records for this station are not official NWS values.
T = Trace of Precipitation, MM = Missing Value Source: NWS Daily Summary

Daily Weather History Graph

Daily Weather History Graph

Search for Another Location

Airport:

Trip Planner

Search our weather history database for the weather conditions in past years. The results will help you decide how hot, cold, wet, or windy it might be!

Date:

Astronomy

Feb. 19, 2014 Rise Set
Actual Time 7:04 AM CST 5:47 PM CST
Civil Twilight 6:35 AM CST 6:16 PM CST
Nautical Twilight 6:01 AM CST 6:50 PM CST
Astronomical Twilight 5:28 AM CST 7:23 PM CST
Moon 10:52 PM CST (2/19) 9:00 AM CST (2/19)
Length of Visible Light 11h 41m
Length of Day
10h 43m
Waning Gibbous, 79% of the Moon is Illuminated
Feb 19
Waning Gibbous
Feb 22
Last Quarter
Mar 1
New
Mar 8
First Quarter
Mar 16
Full

Hourly Weather History & Observations

Time (CST) Temp. Windchill Dew Point Humidity Pressure Visibility Wind Dir Wind Speed Gust Speed Precip Events Conditions
12:15 AM 30.2 °F 21.3 °F 26.6 °F 86% 29.76 in 10.0 mi WNW 10.4 mph - N/A   Clear
12:35 AM 30.2 °F 20.8 °F 26.6 °F 86% 29.76 in 10.0 mi NW 11.5 mph 17.3 mph N/A   Clear
12:55 AM 28.4 °F 20.4 °F 24.8 °F 86% 29.78 in 10.0 mi WNW 8.1 mph - N/A   Clear
1:15 AM 28.4 °F 19.1 °F 24.8 °F 86% 29.78 in 10.0 mi WNW 10.4 mph - N/A   Clear
1:35 AM 28.4 °F 19.7 °F 24.8 °F 86% 29.79 in 10.0 mi WNW 9.2 mph - N/A   Clear
1:54 AM 28.4 °F 19.1 °F 24.8 °F 86% 29.79 in 10.0 mi WNW 10.4 mph - N/A   Clear
2:15 AM 26.6 °F 17.5 °F 24.8 °F 93% 29.80 in 10.0 mi NW 9.2 mph - N/A   Clear
2:35 AM 26.6 °F 18.2 °F 24.8 °F 93% 29.80 in 10.0 mi WNW 8.1 mph - N/A   Clear
2:55 AM 26.6 °F 18.2 °F 24.8 °F 93% 29.80 in 10.0 mi WNW 8.1 mph - N/A   Clear
3:15 AM 26.6 °F 19.1 °F 24.8 °F 93% 29.80 in 10.0 mi WNW 6.9 mph - N/A   Clear
3:34 AM 26.6 °F 21.2 °F 24.8 °F 93% 29.80 in 10.0 mi WNW 4.6 mph - N/A   Clear
3:55 AM 26.6 °F 21.2 °F 23.0 °F 86% 29.80 in 10.0 mi WNW 4.6 mph - N/A   Clear
4:15 AM 24.8 °F - 23.0 °F 93% 29.80 in 10.0 mi Calm Calm - N/A   Clear
4:34 AM 24.8 °F 19.1 °F 23.0 °F 93% 29.80 in 10.0 mi West 4.6 mph - N/A   Clear
4:55 AM 24.8 °F 20.5 °F 21.2 °F 86% 29.81 in 10.0 mi West 3.5 mph - N/A   Clear
5:15 AM 21.2 °F - 19.4 °F 93% 29.81 in 10.0 mi Calm Calm - N/A   Clear
5:34 AM 21.2 °F 16.4 °F 19.4 °F 93% 29.82 in 10.0 mi WSW 3.5 mph - N/A   Clear
5:55 AM 19.4 °F 14.3 °F 17.6 °F 93% 29.83 in 4.0 mi SW 3.5 mph - N/A   Clear
6:15 AM 17.6 °F 12.3 °F 17.6 °F 100% 29.82 in 1.8 mi South 3.5 mph - N/A   Mist
6:34 AM 14.0 °F - 12.2 °F 93% 29.82 in 2.5 mi Calm Calm - N/A   Scattered Clouds
6:55 AM 14.0 °F 6.5 °F 12.2 °F 93% 29.83 in 0.2 mi SW 4.6 mph - N/A Fog Light Freezing Fog
7:15 AM 17.6 °F 10.7 °F 15.8 °F 93% 29.83 in 0.2 mi SSW 4.6 mph - N/A Fog Light Freezing Fog
7:35 AM 17.6 °F - 15.8 °F 93% 29.84 in 1.2 mi Calm Calm - N/A   Mist
7:55 AM 17.6 °F 12.3 °F 15.8 °F 93% 29.85 in 0.5 mi SW 3.5 mph - N/A Fog Light Freezing Fog
8:15 AM 19.4 °F - 19.4 °F 100% 29.85 in 5.0 mi Calm Calm - N/A   Clear
8:35 AM 19.4 °F - 19.4 °F 100% 29.85 in 5.0 mi Calm Calm - N/A   Clear
8:55 AM 21.2 °F 16.4 °F 21.2 °F 100% 29.85 in 7.0 mi South 3.5 mph - N/A   Clear
9:15 AM 23.0 °F 18.4 °F 21.2 °F 93% 29.84 in 7.0 mi SSW 3.5 mph - N/A   Clear
9:35 AM 24.8 °F 20.5 °F 23.0 °F 93% 29.85 in 7.0 mi SSW 3.5 mph - N/A   Clear
9:55 AM 24.8 °F 20.5 °F 24.8 °F 100% 29.85 in 10.0 mi SSW 3.5 mph - N/A   Clear
10:15 AM 26.6 °F 21.2 °F 26.6 °F 100% 29.85 in 10.0 mi SSW 4.6 mph - N/A   Clear
10:35 AM 28.4 °F 20.4 °F 28.4 °F 100% 29.85 in 10.0 mi SSW 8.1 mph - N/A   Clear
10:55 AM 28.4 °F 20.4 °F 28.4 °F 100% 29.85 in 10.0 mi SW 8.1 mph - N/A   Clear
11:15 AM 32.0 °F 25.6 °F 28.4 °F 87% 29.86 in 10.0 mi SW 6.9 mph - N/A   Clear
11:35 AM 33.8 °F 27.7 °F 28.4 °F 81% 29.85 in 10.0 mi SSW 6.9 mph - N/A   Clear
11:55 AM 33.8 °F 27.7 °F 28.4 °F 81% 29.85 in 10.0 mi SSW 6.9 mph - N/A   Clear
12:15 PM 33.8 °F 27.7 °F 28.4 °F 81% 29.85 in 10.0 mi SSW 6.9 mph - N/A   Clear
12:35 PM 35.6 °F 29.9 °F 28.4 °F 75% 29.84 in 10.0 mi SSW 6.9 mph - N/A   Clear
12:55 PM 35.6 °F 29.9 °F 30.2 °F 81% 29.83 in 10.0 mi South 6.9 mph - N/A   Clear
1:14 PM 35.6 °F 28.6 °F 30.2 °F 81% 29.83 in 10.0 mi SSW 9.2 mph - N/A   Clear
1:35 PM 35.6 °F 29.2 °F 30.2 °F 81% 29.82 in 10.0 mi South 8.1 mph - N/A   Clear
1:55 PM 35.6 °F 29.9 °F 30.2 °F 81% 29.82 in 10.0 mi South 6.9 mph - N/A   Clear
2:14 PM 35.6 °F 29.2 °F 30.2 °F 81% 29.82 in 10.0 mi South 8.1 mph - N/A   Clear
2:35 PM 35.6 °F 28.6 °F 30.2 °F 81% 29.82 in 10.0 mi South 9.2 mph - N/A   Clear
2:55 PM 37.4 °F 31.4 °F 30.2 °F 75% 29.82 in 10.0 mi South 8.1 mph - N/A   Clear
3:14 PM 37.4 °F 32.8 °F 30.2 °F 75% 29.82 in 10.0 mi South 5.8 mph - N/A   Clear
3:35 PM 37.4 °F 32.1 °F 30.2 °F 75% 29.81 in 10.0 mi SSE 6.9 mph - N/A   Clear
3:55 PM 37.4 °F 32.1 °F 30.2 °F 75% 29.81 in 10.0 mi SSE 6.9 mph - N/A   Clear
4:15 PM 37.4 °F 32.8 °F 30.2 °F 75% 29.80 in 10.0 mi SSE 5.8 mph - N/A   Clear
4:35 PM 35.6 °F 29.9 °F 30.2 °F 81% 29.79 in 10.0 mi SSE 6.9 mph - N/A   Clear
4:55 PM 35.6 °F 29.9 °F 30.2 °F 81% 29.79 in 10.0 mi SSE 6.9 mph - N/A   Clear
5:15 PM 35.6 °F 28.6 °F 30.2 °F 81% 29.78 in 10.0 mi SSE 9.2 mph - N/A   Clear
5:35 PM 33.8 °F 27.7 °F 30.2 °F 87% 29.78 in 10.0 mi SSE 6.9 mph - N/A   Clear
5:55 PM 33.8 °F 27.0 °F 30.2 °F 87% 29.77 in 10.0 mi SSE 8.1 mph - N/A   Clear
6:15 PM 33.8 °F 27.0 °F 30.2 °F 87% 29.77 in 10.0 mi SSE 8.1 mph - N/A   Clear
6:35 PM 33.8 °F 27.0 °F 28.4 °F 81% 29.76 in 10.0 mi SSE 8.1 mph - N/A   Clear
6:54 PM 33.8 °F 27.0 °F 28.4 °F 81% 29.76 in 10.0 mi SSE 8.1 mph - N/A   Clear
7:15 PM 33.8 °F 27.7 °F 28.4 °F 81% 29.76 in 10.0 mi SSE 6.9 mph - N/A   Clear
7:35 PM 33.8 °F 28.6 °F 28.4 °F 81% 29.75 in 10.0 mi SSE 5.8 mph - N/A   Clear
7:54 PM 32.0 °F 25.6 °F 28.4 °F 87% 29.75 in 10.0 mi SSE 6.9 mph - N/A   Clear
8:15 PM 33.8 °F 27.7 °F 30.2 °F 87% 29.74 in 10.0 mi SSE 6.9 mph - N/A   Clear
8:35 PM 33.8 °F 27.0 °F 30.2 °F 87% 29.74 in 10.0 mi SSE 8.1 mph - N/A   Clear
8:54 PM 33.8 °F 27.0 °F 30.2 °F 87% 29.74 in 10.0 mi SSE 8.1 mph - N/A   Clear
9:15 PM 33.8 °F 27.0 °F 30.2 °F 87% 29.74 in 10.0 mi SSE 8.1 mph - N/A   Clear
9:35 PM 33.8 °F 25.8 °F 30.2 °F 87% 29.74 in 10.0 mi SSE 10.4 mph - N/A   Clear
9:55 PM 33.8 °F 27.7 °F 30.2 °F 87% 29.75 in 10.0 mi SSE 6.9 mph - N/A   Clear
10:15 PM 33.8 °F 27.0 °F 28.4 °F 81% 29.73 in 10.0 mi SSE 8.1 mph - N/A   Clear
10:35 PM 33.8 °F 26.4 °F 28.4 °F 81% 29.72 in 10.0 mi SSE 9.2 mph - N/A   Clear
10:55 PM 33.8 °F 25.8 °F 28.4 °F 81% 29.71 in 10.0 mi SSE 10.4 mph - N/A   Clear
11:15 PM 33.8 °F 27.7 °F 28.4 °F 81% 29.71 in 10.0 mi SSE 6.9 mph - N/A   Clear
11:34 PM 33.8 °F 26.4 °F 28.4 °F 81% 29.70 in 10.0 mi SSE 9.2 mph - N/A   Clear
11:55 PM 33.8 °F 27.7 °F 28.4 °F 81% 29.70 in 10.0 mi SSE 6.9 mph - N/A   Clear